| time (UTC) | temp C | wind direction | speed KPH | gust KPH | rain 1hr cm | rain 24hr cm | rain mn cm | humidity % | barometer mb |
| 20260506081522 | 1 | 277 | 9.7 | 17.7 | 0.00 | 0.00 | 0.00 | 64 | 1013.8 |
| 20260506073020 | 1 | 302 | 3.2 | 9.7 | 0.00 | 0.00 | 0.00 | 66 | 1013.7 |
| 20260506071519 | 0 | 296 | 3.2 | 9.7 | 0.00 | 0.00 | 0.00 | 67 | 1013.7 |
| 20260506061511 | 0 | 321 | 0.0 | 6.4 | 0.00 | 0.00 | 0.00 | 65 | 1013.7 |
| 20260506044556 | 2 | 321 | 1.6 | 9.7 | 0.00 | 0.00 | 0.00 | 61 | 1013.5 |
| 20260506043057 | 2 | 343 | 3.2 | 8.0 | 0.00 | 0.00 | 0.00 | 61 | 1013.4 |
| 20260506041551 | 2 | 351 | 3.2 | 14.5 | 0.00 | 0.00 | 0.00 | 60 | 1013.2 |
| 20260506040051 | 2 | 327 | 4.8 | 14.5 | 0.00 | 0.00 | 0.00 | 60 | 1013.2 |
| 20260506034609 | 3 | 330 | 4.8 | 16.1 | 0.00 | 0.00 | 0.00 | 60 | 1012.9 |
| 20260506033049 | 3 | 321 | 6.4 | 16.1 | 0.00 | 0.00 | 0.00 | 59 | 1012.9 |
| 20260506031552 | 3 | 351 | 4.8 | 9.7 | 0.00 | 0.00 | 0.00 | 58 | 1012.9 |
| 20260506030047 | 3 | 16 | 3.2 | 14.5 | 0.00 | 0.00 | 0.00 | 57 | 1012.8 |
| 20260506024551 | 4 | 347 | 8.0 | 17.7 | 0.00 | 0.00 | 0.00 | 55 | 1012.7 |
| 20260506023054 | 4 | 351 | 8.0 | 19.3 | 0.00 | 0.00 | 0.00 | 54 | 1012.5 |
| 20260506021543 | 5 | 329 | 11.3 | 19.3 | 0.00 | 0.00 | 0.00 | 53 | 1012.4 |
| 20260506020041 | 5 | 338 | 12.9 | 27.4 | 0.00 | 0.00 | 0.00 | 50 | 1012.1 |
| 20260506014538 | 5 | 292 | 11.3 | 22.5 | 0.00 | 0.00 | 0.00 | 47 | 1011.8 |
| 20260506013038 | 5 | 300 | 12.9 | 27.4 | 0.00 | 0.00 | 0.00 | 47 | 1011.6 |
| 20260506011542 | 6 | 342 | 20.9 | 27.4 | 0.00 | 0.00 | 0.00 | 47 | 1011.4 |
| 20260506010050 | 6 | 283 | 14.5 | 24.1 | 0.00 | 0.00 | 0.00 | 47 | 1011.2 |
| 20260506004532 | 6 | 300 | 12.9 | 29.0 | 0.00 | 0.00 | 0.00 | 46 | 1011.1 |
| 20260506003032 | 6 | 320 | 11.3 | 25.7 | 0.00 | 0.00 | 0.00 | 46 | 1010.9 |
| 20260506001531 | 6 | 300 | 14.5 | 37.0 | 0.00 | 0.00 | 0.00 | 45 | 1010.9 |
| 20260506000028 | 7 | 318 | 17.7 | 27.4 | 0.00 | 0.00 | 0.00 | 44 | 1010.6 |
| 20260505234527 | 7 | 290 | 20.9 | 33.8 | 0.00 | 0.00 | 0.00 | 43 | 1010.5 |
| 20260505233026 | 8 | 325 | 17.7 | 30.6 | 0.00 | 0.00 | 0.00 | 42 | 1010.3 |
| 20260505231526 | 8 | 325 | 11.3 | 27.4 | 0.00 | 0.00 | 0.00 | 43 | 1010.2 |
| 20260505230037 | 8 | 266 | 14.5 | 22.5 | 0.00 | 0.00 | 0.00 | 43 | 1010.2 |
| 20260505224526 | 8 | 317 | 16.1 | 35.4 | 0.00 | 0.00 | 0.00 | 41 | 1010.1 |
| 20260505223028 | 8 | 250 | 17.7 | 30.6 | 0.00 | 0.00 | 0.00 | 41 | 1009.9 |
| 20260505221525 | 8 | 252 | 14.5 | 29.0 | 0.00 | 0.00 | 0.00 | 42 | 1010.0 |
| 20260505220027 | 8 | 307 | 11.3 | 29.0 | 0.00 | 0.00 | 0.00 | 41 | 1010.0 |
| 20260505214524 | 8 | 304 | 14.5 | 29.0 | 0.00 | 0.00 | 0.00 | 39 | 1010.0 |
| 20260505213027 | 8 | 246 | 16.1 | 32.2 | 0.00 | 0.00 | 0.00 | 42 | 1010.0 |
| 20260505211523 | 8 | 286 | 12.9 | 27.4 | 0.00 | 0.00 | 0.00 | 41 | 1010.0 |
| 20260505210022 | 8 | 248 | 19.3 | 33.8 | 0.00 | 0.00 | 0.00 | 41 | 1010.1 |
| 20260505204522 | 8 | 308 | 19.3 | 30.6 | 0.00 | 0.00 | 0.00 | 40 | 1010.1 |
| 20260505203120 | 8 | 310 | 20.9 | 33.8 | 0.00 | 0.00 | 0.00 | 41 | 1010.2 |
| 20260505201519 | 7 | 249 | 16.1 | 32.2 | 0.00 | 0.00 | 0.00 | 43 | 1010.2 |
| 20260505200017 | 8 | 282 | 11.3 | 32.2 | 0.00 | 0.00 | 0.00 | 42 | 1010.3 |
| 20260505194516 | 7 | 296 | 16.1 | 30.6 | 0.00 | 0.00 | 0.00 | 45 | 1010.3 |
| 20260505193015 | 7 | 252 | 14.5 | 30.6 | 0.00 | 0.00 | 0.00 | 43 | 1010.2 |
| 20260505191514 | 7 | 261 | 16.1 | 29.0 | 0.00 | 0.00 | 0.00 | 43 | 1010.3 |
| 20260505190024 | 7 | 306 | 11.3 | 24.1 | 0.00 | 0.00 | 0.00 | 43 | 1010.3 |
| 20260505184514 | 7 | 273 | 17.7 | 32.2 | 0.00 | 0.00 | 0.00 | 43 | 1010.3 |
| 20260505183013 | 7 | 291 | 16.1 | 37.0 | 0.00 | 0.00 | 0.00 | 43 | 1010.3 |
| 20260505181512 | 7 | 309 | 20.9 | 35.4 | 0.00 | 0.00 | 0.00 | 44 | 1010.3 |
| 20260505180010 | 7 | 236 | 14.5 | 24.1 | 0.00 | 0.00 | 0.00 | 44 | 1010.2 |
| 20260505174508 | 6 | 279 | 19.3 | 30.6 | 0.00 | 0.00 | 0.00 | 43 | 1010.3 |
| 20260505173008 | 6 | 288 | 17.7 | 30.6 | 0.00 | 0.00 | 0.00 | 45 | 1010.4 |
| 20260505171508 | 6 | 323 | 12.9 | 33.8 | 0.00 | 0.00 | 0.00 | 46 | 1010.3 |
| 20260505170014 | 6 | 309 | 14.5 | 30.6 | 0.00 | 0.00 | 0.00 | 46 | 1010.4 |
| 20260505164506 | 6 | 315 | 19.3 | 33.8 | 0.00 | 0.00 | 0.00 | 48 | 1010.2 |
| 20260505163009 | 6 | 260 | 16.1 | 35.4 | 0.00 | 0.00 | 0.00 | 47 | 1010.2 |
| 20260505161502 | 6 | 320 | 14.5 | 33.8 | 0.00 | 0.00 | 0.00 | 49 | 1010.2 |
| 20260505153056 | 5 | 332 | 20.9 | 30.6 | 0.00 | 0.00 | 0.00 | 53 | 1010.0 |
| 20260505151611 | 4 | 298 | 14.5 | 33.8 | 0.00 | 0.00 | 0.00 | 52 | 1010.0 |
| 20260505124532 | 2 | 288 | 12.9 | 27.4 | 0.00 | 0.00 | 0.00 | 54 | 1008.7 |
| 20260505123028 | 2 | 289 | 14.5 | 24.1 | 0.00 | 0.00 | 0.00 | 56 | 1008.5 |
| 20260505121528 | 1 | 291 | 14.5 | 24.1 | 0.00 | 0.00 | 0.00 | 58 | 1008.4 |
| 20260505120048 | 1 | 288 | 14.5 | 22.5 | 0.00 | 0.00 | 0.00 | 60 | 1008.1 |
| 20260505114515 | 1 | 315 | 12.9 | 22.5 | 0.00 | 0.00 | 0.00 | 62 | 1007.8 |
| 20260505113013 | 1 | 295 | 11.3 | 24.1 | 0.00 | 0.00 | 0.00 | 64 | 1007.7 |
| 20260505111509 | 1 | 284 | 11.3 | 24.1 | 0.00 | 0.00 | 0.00 | 65 | 1007.6 |
| 20260505101600 | 1 | 277 | 8.0 | 19.3 | 0.00 | 0.00 | 0.00 | 66 | 1006.9 |
| 20260505100057 | 1 | 288 | 11.3 | 16.1 | 0.00 | 0.00 | 0.00 | 66 | 1007.0 |
| 20260505094554 | 1 | 288 | 8.0 | 19.3 | 0.00 | 0.00 | 0.00 | 66 | 1006.9 |
| 20260505093054 | 2 | 293 | 9.7 | 22.5 | 0.00 | 0.00 | 0.00 | 66 | 1006.8 |
| 20260505091548 | 2 | 302 | 11.3 | 25.7 | 0.00 | 0.00 | 0.00 | 66 | 1006.6 |
| 20260505090050 | 2 | 312 | 11.3 | 22.5 | 0.00 | 0.00 | 0.00 | 66 | 1006.4 |
| 20260505084544 | 2 | 303 | 12.9 | 22.5 | 0.00 | 0.00 | 0.00 | 65 | 1006.2 |
| 20260505083041 | 2 | 270 | 14.5 | 22.5 | 0.00 | 0.00 | 0.00 | 65 | 1006.0 |